Time,TemperatureF,DewpointF,PressureIn,WindDirection,WindDirectionDegrees,WindSpeedMPH,WindSpeedGustMPH,Humidity,HourlyPrecipIn,Conditions,Clouds,dailyrainin,SoftwareType,DateUTC
2013-01-20 00:04:00,38.8,28.0,29.88,SE,136,0.0,6.0,66,0.00,,,0.16,weatherlink.com 1.10,2013-01-20 05:04:00,
2013-01-20 00:19:00,38.4,28.0,29.87,East,90,2.0,6.0,67,0.00,,,0.16,weatherlink.com 1.10,2013-01-20 05:19:00,
2013-01-20 00:34:00,38.2,28.0,29.86,ENE,77,2.0,4.0,68,0.00,,,0.16,weatherlink.com 1.10,2013-01-20 05:34:00,
2013-01-20 00:49:00,38.0,29.0,29.85,ENE,72,3.0,4.0,69,0.00,,,0.16,weatherlink.com 1.10,2013-01-20 05:49:00,
2013-01-20 01:04:00,38.1,29.0,29.84,ESE,102,2.0,7.0,69,0.00,,,0.16,weatherlink.com 1.10,2013-01-20 06:04:00,
2013-01-20 01:19:00,37.9,29.0,29.84,East,91,2.0,5.0,70,0.00,,,0.16,weatherlink.com 1.10,2013-01-20 06:19:00,
2013-01-20 01:34:00,37.8,29.0,29.84,ESE,114,1.0,5.0,70,0.00,,,0.16,weatherlink.com 1.10,2013-01-20 06:34:00,
2013-01-20 01:49:00,37.8,28.0,29.83,SSW,205,0.0,4.0,69,0.00,,,0.16,weatherlink.com 1.10,2013-01-20 06:49:00,
2013-01-20 02:04:00,37.2,29.0,29.83,NE,38,0.0,2.0,71,0.00,,,0.16,weatherlink.com 1.10,2013-01-20 07:04:00,
2013-01-20 02:19:00,37.1,28.0,29.83,SSW,207,2.0,4.0,70,0.00,,,0.16,weatherlink.com 1.10,2013-01-20 07:19:00,
2013-01-20 02:34:00,37.7,28.0,29.82,SW,218,1.0,7.0,69,0.00,,,0.16,weatherlink.com 1.10,2013-01-20 07:34:00,
2013-01-20 02:49:00,37.8,28.0,29.82,SW,224,0.0,2.0,68,0.00,,,0.16,weatherlink.com 1.10,2013-01-20 07:49:00,
2013-01-20 03:04:00,37.8,28.0,29.81,WNW,284,0.0,7.0,68,0.00,,,0.16,weatherlink.com 1.10,2013-01-20 08:04:00,
2013-01-20 03:19:00,37.6,28.0,29.80,NNW,340,0.0,2.0,68,0.00,,,0.16,weatherlink.com 1.10,2013-01-20 08:19:00,
2013-01-20 03:34:00,37.1,28.0,29.79,SW,223,0.0,6.0,69,0.00,,,0.16,weatherlink.com 1.10,2013-01-20 08:34:00,
2013-01-20 03:49:00,37.1,28.0,29.78,SW,226,0.0,5.0,69,0.00,,,0.16,weatherlink.com 1.10,2013-01-20 08:49:00,
2013-01-20 04:04:00,36.4,27.0,29.77,ENE,57,4.0,4.0,70,0.00,,,0.16,weatherlink.com 1.10,2013-01-20 09:04:00,
2013-01-20 04:19:00,35.3,27.0,29.76,ENE,61,1.0,3.0,72,0.00,,,0.16,weatherlink.com 1.10,2013-01-20 09:19:00,
2013-01-20 04:34:00,34.5,27.0,29.75,NE,55,1.0,4.0,75,0.00,,,0.16,weatherlink.com 1.10,2013-01-20 09:34:00,
2013-01-20 04:49:00,34.3,27.0,29.75,ENE,65,2.0,4.0,76,0.00,,,0.16,weatherlink.com 1.10,2013-01-20 09:49:00,
2013-01-20 05:04:00,33.9,27.0,29.74,ESE,119,0.0,4.0,76,0.00,,,0.16,weatherlink.com 1.10,2013-01-20 10:04:00,
2013-01-20 05:19:00,34.6,27.0,29.73,SW,220,0.0,3.0,73,0.00,,,0.16,weatherlink.com 1.10,2013-01-20 10:19:00,
2013-01-20 05:35:00,35.1,27.0,29.73,SSW,194,0.0,1.0,72,0.00,,,0.16,weatherlink.com 1.10,2013-01-20 10:35:00,
2013-01-20 05:50:00,34.9,27.0,29.72,SSW,194,0.0,2.0,73,0.00,,,0.16,weatherlink.com 1.10,2013-01-20 10:50:00,
2013-01-20 06:05:00,34.7,27.0,29.72,West,262,0.0,2.0,73,0.00,,,0.00,weatherlink.com 1.10,2013-01-20 11:05:00,
2013-01-20 06:20:00,34.4,27.0,29.72,NW,309,1.0,2.0,74,0.00,,,0.00,weatherlink.com 1.10,2013-01-20 11:20:00,
2013-01-20 06:35:00,34.2,27.0,29.72,NNW,339,1.0,3.0,75,0.00,,,0.00,weatherlink.com 1.10,2013-01-20 11:35:00,
2013-01-20 06:50:00,33.8,27.0,29.71,North,355,0.0,3.0,76,0.00,,,0.00,weatherlink.com 1.10,2013-01-20 11:50:00,
2013-01-20 07:05:00,33.7,27.0,29.71,West,273,0.0,4.0,75,0.00,,,0.00,weatherlink.com 1.10,2013-01-20 12:05:00,
2013-01-20 07:20:00,33.7,27.0,29.72,West,273,0.0,1.0,76,0.00,,,0.00,weatherlink.com 1.10,2013-01-20 12:20:00,
2013-01-20 07:35:00,33.2,27.0,29.72,West,273,0.0,1.0,77,0.00,,,0.00,weatherlink.com 1.10,2013-01-20 12:35:00,
2013-01-20 07:50:00,32.3,26.0,29.72,NNE,24,0.0,2.0,78,0.00,,,0.00,weatherlink.com 1.10,2013-01-20 12:50:00,
2013-01-20 08:05:00,32.1,27.0,29.72,NNW,336,0.0,2.0,80,0.00,,,0.00,weatherlink.com 1.10,2013-01-20 13:05:00,
2013-01-20 08:20:00,32.8,27.0,29.73,WNW,296,0.0,1.0,80,0.00,,,0.00,weatherlink.com 1.10,2013-01-20 13:20:00,
2013-01-20 08:35:00,33.9,27.0,29.73,West,263,1.0,3.0,77,0.00,,,0.00,weatherlink.com 1.10,2013-01-20 13:35:00,
2013-01-20 08:50:00,35.5,28.0,29.73,West,277,2.0,8.0,73,0.00,,,0.00,weatherlink.com 1.10,2013-01-20 13:50:00,
2013-01-20 09:05:00,36.4,28.0,29.73,WSW,252,3.0,4.0,72,0.00,,,0.00,weatherlink.com 1.10,2013-01-20 14:05:00,
2013-01-20 09:20:00,37.2,28.0,29.73,WSW,248,4.0,5.0,70,0.00,,,0.00,weatherlink.com 1.10,2013-01-20 14:20:00,
2013-01-20 09:35:00,38.8,29.0,29.73,West,263,4.0,7.0,68,0.00,,,0.00,weatherlink.com 1.10,2013-01-20 14:35:00,
2013-01-20 09:50:00,40.2,29.0,29.74,WNW,285,2.0,11.0,65,0.00,,,0.00,weatherlink.com 1.10,2013-01-20 14:50:00,
2013-01-20 10:05:00,41.6,30.0,29.73,WSW,249,5.0,12.0,63,0.00,,,0.00,weatherlink.com 1.10,2013-01-20 15:05:00,
2013-01-20 10:20:00,42.4,30.0,29.73,WSW,251,7.0,13.0,63,0.00,,,0.00,weatherlink.com 1.10,2013-01-20 15:20:00,
2013-01-20 10:35:00,43.8,31.0,29.72,West,262,7.0,14.0,62,0.00,,,0.00,weatherlink.com 1.10,2013-01-20 15:35:00,
2013-01-20 10:50:00,45.6,31.0,29.72,WSW,238,13.0,19.0,58,0.00,,,0.00,weatherlink.com 1.10,2013-01-20 15:50:00,
2013-01-20 11:06:00,46.5,32.0,29.72,West,263,8.0,20.0,57,0.00,,,0.00,weatherlink.com 1.10,2013-01-20 16:06:00,
2013-01-20 11:21:00,46.6,31.0,29.72,West,259,14.0,21.0,56,0.00,,,0.00,weatherlink.com 1.10,2013-01-20 16:21:00,
2013-01-20 11:36:00,46.7,31.0,29.71,West,259,17.0,21.0,55,0.00,,,0.00,weatherlink.com 1.10,2013-01-20 16:36:00,
2013-01-20 11:51:00,47.3,32.0,29.71,West,261,22.0,24.0,56,0.00,,,0.00,weatherlink.com 1.10,2013-01-20 16:51:00,
2013-01-20 12:06:00,47.2,32.0,29.71,WSW,250,11.0,17.0,56,0.00,,,0.00,weatherlink.com 1.10,2013-01-20 17:06:00,
2013-01-20 12:21:00,46.4,31.0,29.70,West,270,8.0,17.0,56,0.00,,,0.00,weatherlink.com 1.10,2013-01-20 17:21:00,
2013-01-20 12:36:00,47.6,32.0,29.70,West,265,8.0,13.0,55,0.00,,,0.00,weatherlink.com 1.10,2013-01-20 17:36:00,
2013-01-20 12:51:00,49.0,32.0,29.70,SW,229,9.0,15.0,53,0.00,,,0.00,weatherlink.com 1.10,2013-01-20 17:51:00,
2013-01-20 13:06:00,50.0,25.0,29.71,WNW,292,11.0,22.0,38,0.00,,,0.00,weatherlink.com 1.10,2013-01-20 18:06:00,
2013-01-20 13:21:00,50.3,22.0,29.71,North,5,13.0,22.0,33,0.00,,,0.00,weatherlink.com 1.10,2013-01-20 18:21:00,
2013-01-20 13:36:00,50.0,20.0,29.72,WSW,253,9.0,30.0,31,0.00,,,0.00,weatherlink.com 1.10,2013-01-20 18:36:00,
2013-01-20 13:51:00,49.6,18.0,29.73,WSW,256,12.0,21.0,29,0.00,,,0.00,weatherlink.com 1.10,2013-01-20 18:51:00,
2013-01-20 14:06:00,49.6,17.0,29.73,WSW,243,13.0,19.0,27,0.00,,,0.00,weatherlink.com 1.10,2013-01-20 19:06:00,
2013-01-20 14:21:00,49.1,19.0,29.74,WNW,285,13.0,25.0,30,0.00,,,0.00,weatherlink.com 1.10,2013-01-20 19:21:00,
2013-01-20 14:36:00,48.3,16.0,29.76,WNW,284,4.0,23.0,28,0.00,,,0.00,weatherlink.com 1.10,2013-01-20 19:36:00,
2013-01-20 14:51:00,48.2,18.0,29.77,WNW,293,9.0,22.0,30,0.00,,,0.00,weatherlink.com 1.10,2013-01-20 19:51:00,
2013-01-20 15:06:00,47.8,18.0,29.77,West,267,8.0,20.0,31,0.00,,,0.00,weatherlink.com 1.10,2013-01-20 20:06:00,
2013-01-20 15:21:00,47.2,15.0,29.79,WNW,290,11.0,18.0,28,0.00,,,0.00,weatherlink.com 1.10,2013-01-20 20:21:00,
2013-01-20 15:36:00,46.3,15.0,29.80,West,273,9.0,18.0,29,0.00,,,0.00,weatherlink.com 1.10,2013-01-20 20:36:00,
2013-01-20 16:06:00,44.8,15.0,29.82,SW,234,9.0,27.0,30,0.00,,,0.00,weatherlink.com 1.10,2013-01-20 21:06:00,
2013-01-20 16:21:00,43.5,15.0,29.83,West,262,10.0,22.0,32,0.00,,,0.00,weatherlink.com 1.10,2013-01-20 21:21:00,
2013-01-20 16:36:00,42.3,16.0,29.85,WSW,249,7.0,21.0,34,0.00,,,0.00,weatherlink.com 1.10,2013-01-20 21:36:00,
2013-01-20 17:06:00,40.1,16.0,29.86,WSW,248,13.0,17.0,37,0.00,,,0.00,weatherlink.com 1.10,2013-01-20 22:06:00,
2013-01-20 17:21:00,39.1,17.0,29.88,West,273,3.0,16.0,40,0.00,,,0.00,weatherlink.com 1.10,2013-01-20 22:21:00,
2013-01-20 17:36:00,38.4,16.0,29.89,WSW,253,8.0,12.0,41,0.00,,,0.00,weatherlink.com 1.10,2013-01-20 22:36:00,
2013-01-20 17:51:00,37.6,17.0,29.91,West,277,2.0,8.0,44,0.00,,,0.00,weatherlink.com 1.10,2013-01-20 22:51:00,
2013-01-20 18:06:00,36.5,17.0,29.91,WNW,288,7.0,13.0,45,0.00,,,0.00,weatherlink.com 1.10,2013-01-20 23:06:00,
2013-01-20 18:21:00,36.1,16.0,29.91,WNW,302,5.0,11.0,44,0.00,,,0.00,weatherlink.com 1.10,2013-01-20 23:21:00,
2013-01-20 18:52:00,34.7,16.0,29.93,West,264,4.0,9.0,46,0.00,,,0.00,weatherlink.com 1.10,2013-01-20 23:52:00,
2013-01-20 19:07:00,34.1,15.0,29.94,WSW,250,9.0,12.0,46,0.00,,,0.00,weatherlink.com 1.10,2013-01-21 00:07:00,
2013-01-20 19:22:00,33.8,14.0,29.95,West,279,5.0,15.0,45,0.00,,,0.00,weatherlink.com 1.10,2013-01-21 00:22:00,
2013-01-20 19:37:00,33.2,14.0,29.96,WNW,286,4.0,11.0,46,0.00,,,0.00,weatherlink.com 1.10,2013-01-21 00:37:00,
2013-01-20 19:52:00,32.5,14.0,29.97,WSW,257,4.0,13.0,46,0.00,,,0.00,weatherlink.com 1.10,2013-01-21 00:52:00,
2013-01-20 20:07:00,32.2,13.0,29.98,WSW,249,5.0,12.0,46,0.00,,,0.00,weatherlink.com 1.10,2013-01-21 01:07:00,
2013-01-20 20:22:00,31.9,13.0,29.98,WSW,252,6.0,11.0,46,0.00,,,0.00,weatherlink.com 1.10,2013-01-21 01:22:00,
2013-01-20 20:37:00,31.5,13.0,29.99,WSW,241,8.0,10.0,46,0.00,,,0.00,weatherlink.com 1.10,2013-01-21 01:37:00,
2013-01-20 20:52:00,30.9,13.0,29.99,SW,232,6.0,8.0,48,0.00,,,0.00,weatherlink.com 1.10,2013-01-21 01:52:00,
2013-01-20 21:07:00,30.6,13.0,30.00,WSW,248,3.0,8.0,48,0.00,,,0.00,weatherlink.com 1.10,2013-01-21 02:07:00,
2013-01-20 21:22:00,30.2,12.0,30.00,WSW,248,1.0,11.0,47,0.00,,,0.00,weatherlink.com 1.10,2013-01-21 02:22:00,
2013-01-20 21:37:00,30.0,13.0,30.01,NW,318,0.0,5.0,49,0.00,,,0.00,weatherlink.com 1.10,2013-01-21 02:37:00,
2013-01-20 21:52:00,29.2,13.0,30.02,NW,322,0.0,3.0,52,0.00,,,0.00,weatherlink.com 1.10,2013-01-21 02:52:00,
2013-01-20 22:07:00,28.5,13.0,30.02,WNW,290,0.0,7.0,53,0.00,,,0.00,weatherlink.com 1.10,2013-01-21 03:07:00,
2013-01-20 22:22:00,27.9,13.0,30.02,NW,317,1.0,10.0,53,0.00,,,0.00,weatherlink.com 1.10,2013-01-21 03:22:00,
2013-01-20 22:37:00,27.8,13.0,30.03,NNW,333,3.0,15.0,53,0.00,,,0.00,weatherlink.com 1.10,2013-01-21 03:37:00,
2013-01-20 23:07:00,27.2,12.0,30.03,West,276,2.0,8.0,53,0.00,,,0.00,weatherlink.com 1.10,2013-01-21 04:07:00,
2013-01-20 23:22:00,26.9,12.0,30.04,NW,320,4.0,10.0,54,0.00,,,0.00,weatherlink.com 1.10,2013-01-21 04:22:00,
2013-01-20 23:38:00,26.8,11.0,30.03,WNW,298,1.0,10.0,52,0.00,,,0.00,weatherlink.com 1.10,2013-01-21 04:38:00,
2013-01-20 23:52:00,26.5,12.0,30.03,West,268,3.0,8.0,54,0.00,,,0.00,weatherlink.com 1.10,2013-01-21 04:52:00,